STARLINK-32844, 62820

Orbit data source: Space-Track

STARLINK-32844, 62820 is a payload satellite owned by SpaceX/Seattle (US) in LEO that was launched on Fri, 24 Jan 2025 UTC via an FALCON 9 launch vehicle from the Air Force Western Test Range (AFWTR). Payload-class satellites include a variety of spacecraft equipped with specific instruments for various scientific and technological missions. These include communications satellites like Starlink; space stations such as the ISS; scientific satellites like the Hubble; Earth observation satellites from companies like Planet Labs, Umbra, and HawkEye 360; GPS; miniature CubeSats for education and research; and military/defense satellites.

Loading next visibility...
Identifier
62820, 2025-018Q
Orbit
LEO
Country
Flag of USUS
Related business
Manufacturer
SpaceX/Seattle
Mission
Operational Commercial Communications
Bus & Motor
STARLINK V2M, Unknown motor
Mass
730 kg wet, ~700 kg dry
Launch date (UTC)
2025-01-24 (11 months ago)
Launch vehicle
FALCON 9
Launch site
Air Force Western Test Range (AFWTR)
Object type
Payload
Rocket body
Debris
Shape & HBR
Box + 2 Pan, 17.7 m
Radar Cross Section
33.884 m², Large (>1 m²)

Expand to show TLE details & history
Last TLE update: 23 hours ago

TLE from 23 hours ago
0 STARLINK-32844
1 62820U 25018Q   25349.27369682  .00010763  00000-0  37486-3 0  9998
2 62820  53.1601 341.7187 0001272  92.0270 268.0877 15.30209742 50241
Epoch: 2025-12-15T06:34Z
TLE epoch observation values (Epoch: 2025-12-15T06:34:07.405Z)
Latitude
0.00004°
Longitude
159.01325°
Altitude
476.115 km
Speed
7.629 km/s
True Right ascension
22h 46m 52s
True Declination
0° 00' 00"
Sunlit
Object was in daylight at epoch
Visualization orbit readout
Latitude
Unknown
Longitude
Unknown
Altitude
Unknown
Speed
Unknown
Apparent Right ascension
Unknown
Apparent Declination
Unknown
Sunlit
N/A
Visualization observer readout
Local Sidereal Time
04:26:50
Azimuth
Unknown
Elevation
Unknown
Doppler factor
Unknown
Orbital elements
Apogee altitude
476.314 km
Perigee altitude
474.571 km
Semi-major axis
6,853.579 km
Eccentricity
0.00013
Inclination
53.1601°
RAAN
341.7187°
Arg. of periapsis
92.027°
True anomaly
268.07313°
Mean anomaly
268.0877°
Eccentric anomaly
268.08042°
Mean motion
3.82531 °/min
Orbital period
94.11 mins
BSTAR
0.00037486
Loading maneuver chart data...
Computing Atmospheric mass density...
Loading historical data...
Loading historical data...
Loading historical data...
Loading historical data...
Loading historical data...
Loading historical data...
Loading historical data...

Documentation

Showing up to 5 results
|